Zurück zum Katalog

FENGYUN 1C DEB

LostSSO
NORAD 31316·DEBRIS·🇨🇳 China

Gestartet May 10, 1999 von Taiyuan Satellite Launch Center

Loading…

Nächste Überflüge (nächste 24 Stunden)

TLE

VeraltetSource: Space-Track

Epoche: Oct 25, 2022, 22:59 UTC

1 31316U 99025BPU 22298.95822317  .00002417  00000-0  12614-2 0  9999
2 31316  98.9114   2.4896 0116358 264.2663  94.5232 14.12017324800637

Verfolge FENGYUN 1C DEB in Echtzeit mit AllMySat

Download on the App Store